Location: Unspecified
(33.6682°S, 0.0000°E)
Time: 20:36:18
(UTC+00:00)

Vanguard 1 - Pass Details

Date: 28 June 2019
Orbit: 653 x 3830 km, 34.3° (Epoch: 22 July)

Event Time Altitude Azimuth Distance (km) Brightness Sun altitude
Rises 19:54:11 0° 257° (WSW) 5,261 14.7 -35.1°
Reaches altitude 10° 19:57:17 10° 263° (W) 4,620 14.2 -35.7°
Maximum altitude 20:10:14 44° 329° (NNW) 3,763 13.0 -38.4°
Drops below altitude 10° 20:30:14 10° 33° (NNE) 6,872 14.1 -42.5°
Sets 20:36:17 0° 38° (NE) 7,958 14.4 -43.8°
